Fort Dix, NJ

5:10 AM EDT on August 24, 2016 (GMT -0400)
McGuire Air Force Base

Weather History for KWRI - March, 2013

Change the Weather History Date:

Monday, March 11, 2013

  Actual Average Record
Temperature  
Mean Temperature 44 °F -  
Max Temperature 60 °F 47 °F 86 °F (2004)
Min Temperature 30 °F 28 °F 14 °F (2003)
Degree Days  
Heating Degree Days 20    
Moisture  
Dew Point 37 °F    
Average Humidity 95    
Maximum Humidity 100    
Minimum Humidity 50    
Precipitation  
Precipitation 0.00 in - - ()
Sea Level Pressure  
Sea Level Pressure 30.22 in    
Wind  
Wind Speed 2 mph (SE)    
Max Wind Speed 13 mph    
Max Gust Speed 20 mph    
Visibility 4 miles    
Events Fog    
Averages and records for this station are not official NWS values.
T = Trace of Precipitation, MM = Missing Value Source: NWS Daily Summary

Daily Weather History Graph

Daily Weather History Graph

Search for Another Location

Airport or City:

Trip Planner

Search our weather history database for the weather conditions in past years. The results will help you decide how hot, cold, wet, or windy it might be!

Date:

Astronomy

Mar. 11, 2013 Rise Set
Actual Time 7:15 AM EDT 7:01 PM EDT
Civil Twilight 6:48 AM EDT 7:28 PM EDT
Nautical Twilight 6:17 AM EDT 7:59 PM EDT
Astronomical Twilight 5:45 AM EDT 8:31 PM EDT
Moon 6:48 AM EDT (3/11) 7:10 PM EDT (3/11)
Length of Visible Light 12h 39m
Length of Day
11h 45m
Waning Crescent, 0% of the Moon is Illuminated
Mar 11
Waning Crescent
Mar 11
New
Mar 19
First Quarter
Mar 27
Full
Apr 3
Last Quarter

Hourly Weather History & Observations

Time (EDT) Temp. Windchill Dew Point Humidity Pressure Visibility Wind Dir Wind Speed Gust Speed Precip Events Conditions
12:55 AM 31.6 °F - 30.2 °F 94% 30.29 in 10.0 mi Calm Calm - N/A   Mostly Cloudy
1:42 AM 32.0 °F - 30.2 °F 93% 30.27 in 10.0 mi Calm Calm - N/A   Overcast
1:51 AM 32.0 °F - 30.2 °F 93% 30.27 in 10.0 mi Calm Calm - N/A   Overcast
1:55 AM 30.9 °F - 29.7 °F 95% 30.28 in 10.0 mi Calm Calm - N/A   Overcast
2:17 AM 32.0 °F - 32.0 °F 100% 30.28 in 10.0 mi Calm Calm - N/A   Overcast
2:34 AM 32.0 °F - 32.0 °F 100% 30.28 in 6.0 mi Calm Calm - N/A   Overcast
2:40 AM 32.0 °F - 32.0 °F 100% 30.28 in 4.0 mi Calm Calm - N/A   Overcast
2:42 AM 32.0 °F - 32.0 °F 100% 30.28 in 2.5 mi Calm Calm - N/A   Overcast
2:44 AM 32.0 °F - 32.0 °F 100% 30.28 in 1.5 mi Calm Calm - N/A   Overcast
2:46 AM 32.0 °F - 32.0 °F 100% 30.28 in 1.2 mi Calm Calm - N/A   Overcast
2:48 AM 32.0 °F 28.7 °F 32.0 °F 100% 30.27 in 1.0 mi East 3.5 mph - N/A   Mist
2:49 AM 32.0 °F 28.7 °F 32.0 °F 100% 30.27 in 1.0 mi ENE 3.5 mph - N/A   Mist
2:50 AM 32.0 °F 28.7 °F 32.0 °F 100% 30.27 in 0.8 mi ENE 3.5 mph - N/A   Mist
2:54 AM 32.0 °F - 32.0 °F 100% 30.27 in 0.5 mi Calm Calm - N/A Fog Fog
2:55 AM 32.7 °F - 32.0 °F 97% 30.27 in 0.5 mi Calm Calm - N/A Fog Fog
2:56 AM 32.0 °F - 32.0 °F 100% 30.27 in 0.5 mi Calm Calm - N/A Fog Fog
2:57 AM 33.8 °F - 32.0 °F 93% 30.27 in 0.5 mi Calm Calm - N/A Fog Fog
3:01 AM 33.8 °F - 32.0 °F 93% 30.27 in 0.2 mi Calm Calm - N/A Fog Fog
3:53 AM 33.8 °F - 33.8 °F 100% 30.25 in 0.5 mi Calm Calm - N/A Fog Fog
3:55 AM 34.2 °F - 33.6 °F 98% 30.25 in 0.5 mi Calm Calm - N/A Fog Fog
4:09 AM 33.8 °F 30.8 °F 33.8 °F 100% 30.25 in 0.5 mi East 3.5 mph - N/A Fog Fog
4:28 AM 33.8 °F 29.6 °F 33.8 °F 100% 30.24 in 0.8 mi East 4.6 mph - N/A   Mist
4:37 AM 33.8 °F 30.8 °F 33.8 °F 100% 30.23 in 0.5 mi East 3.5 mph - N/A Fog Fog
4:47 AM 33.8 °F - 33.8 °F 100% 30.24 in 0.5 mi Calm Calm - N/A Fog Fog
4:48 AM 33.8 °F - 33.8 °F 100% 30.24 in 0.2 mi Calm Calm - N/A Fog Fog
4:51 AM 33.8 °F - 33.8 °F 100% 30.24 in 0.2 mi Calm Calm - N/A Fog Fog
4:55 AM 33.6 °F - 33.4 °F 99% 30.24 in 0.2 mi Calm Calm - N/A Fog Fog
5:19 AM 33.8 °F 30.8 °F 33.8 °F 100% 30.24 in 0.2 mi ESE 3.5 mph - N/A Fog Fog
5:20 AM 33.8 °F 30.8 °F 33.8 °F 100% 30.24 in 0.5 mi ESE 3.5 mph - N/A Fog Fog
5:23 AM 33.8 °F 29.6 °F 33.8 °F 100% 30.24 in 0.5 mi ESE 4.6 mph - N/A Fog Fog
5:24 AM 33.8 °F 29.6 °F 33.8 °F 100% 30.23 in 0.5 mi ESE 4.6 mph - N/A Fog Fog
5:31 AM 33.8 °F - 33.8 °F 100% 30.24 in 0.8 mi Calm Calm - N/A   Mist
5:37 AM 33.8 °F - 33.8 °F 100% 30.24 in 0.8 mi Calm Calm - N/A   Mist
5:42 AM 33.8 °F - 33.8 °F 100% 30.24 in 0.5 mi Calm Calm - N/A Fog Fog
5:55 AM 33.4 °F 30.4 °F 33.3 °F 99% 30.23 in 0.5 mi ESE 3.5 mph - 0.00 in Fog Fog
5:57 AM 33.8 °F - 33.8 °F 100% 30.23 in 0.5 mi Calm Calm - N/A Fog Fog
5:58 AM 33.8 °F - 33.8 °F 100% 30.23 in 0.5 mi Calm Calm - N/A Fog Fog
6:08 AM 33.8 °F - 33.8 °F 100% 30.24 in 0.5 mi Calm Calm - N/A Fog Fog
6:17 AM 33.8 °F 30.8 °F 33.8 °F 100% 30.23 in 0.5 mi ESE 3.5 mph - N/A Fog Fog
6:29 AM 33.8 °F 30.8 °F 33.8 °F 100% 30.23 in 0.8 mi ESE 3.5 mph - N/A   Mist
6:35 AM 33.8 °F - 33.8 °F 100% 30.23 in 0.8 mi Calm Calm - N/A   Mist
6:55 AM 33.6 °F - 33.4 °F 99% 30.23 in 0.8 mi Calm Calm - 0.00 in   Mist
6:56 AM 33.8 °F - 33.8 °F 100% 30.23 in 0.5 mi Calm Calm - N/A Fog Fog
7:07 AM 33.8 °F - 33.8 °F 100% 30.23 in 0.2 mi Calm Calm - N/A Fog Fog
7:10 AM 33.8 °F - 33.8 °F 100% 30.22 in 0.2 mi Calm Calm - N/A Fog Fog
7:15 AM 33.8 °F - 33.8 °F 100% 30.22 in 0.2 mi Calm Calm - N/A Fog Fog
7:51 AM 35.6 °F - 33.8 °F 93% 30.23 in 0.2 mi Calm Calm - N/A Fog Fog
7:53 AM 35.6 °F - 33.8 °F 93% 30.23 in 0.2 mi Calm Calm - N/A Fog Fog
7:55 AM 34.9 °F - 34.7 °F 99% 30.23 in 0.2 mi Calm Calm - N/A Fog Fog
7:57 AM 35.6 °F - 35.6 °F 100% 30.23 in 0.2 mi Calm Calm - N/A Fog Fog
7:59 AM 35.6 °F - 35.6 °F 100% 30.23 in 0.2 mi Calm Calm - N/A Fog Fog
8:03 AM 35.6 °F - 35.6 °F 100% 30.22 in 0.5 mi Calm Calm - N/A Fog Fog
8:12 AM 35.6 °F 32.8 °F 35.6 °F 100% 30.22 in 0.8 mi ESE 3.5 mph - N/A   Mist
8:16 AM 35.6 °F - 35.6 °F 100% 30.23 in 0.8 mi Calm Calm - N/A   Mist
8:18 AM 35.6 °F - 35.6 °F 100% 30.23 in 0.8 mi Calm Calm - N/A   Mist
8:19 AM 35.6 °F - 35.6 °F 100% 30.23 in 0.8 mi Calm Calm - N/A   Mist
8:21 AM 35.6 °F - 35.6 °F 100% 30.23 in 0.8 mi Calm Calm - N/A   Mist
8:22 AM 35.6 °F - 35.6 °F 100% 30.24 in 1.0 mi Calm Calm - N/A   Mist
8:26 AM 35.6 °F - 35.6 °F 100% 30.23 in 1.2 mi Calm Calm - N/A   Overcast
8:29 AM 35.6 °F - 35.6 °F 100% 30.23 in 1.5 mi Calm Calm - N/A   Overcast
8:31 AM 35.6 °F - 35.6 °F 100% 30.24 in 1.8 mi Calm Calm - N/A   Overcast
8:32 AM 37.4 °F - 35.6 °F 93% 30.24 in 2.0 mi Calm Calm - N/A   Overcast
8:36 AM 37.4 °F - 37.4 °F 100% 30.24 in 3.0 mi Calm Calm - N/A   Overcast
8:55 AM 37.8 °F - 37.4 °F 99% 30.24 in 6.0 mi Calm Calm - N/A   Overcast
9:24 AM 39.2 °F - 39.2 °F 100% 30.24 in 10.0 mi Calm Calm - N/A   Overcast
9:55 AM 41.0 °F - 40.8 °F 99% 30.24 in 10.0 mi Calm Calm - N/A   Overcast
9:56 AM 41.0 °F 39.0 °F 41.0 °F 100% 30.24 in 10.0 mi Variable 3.5 mph - N/A   Overcast
10:26 AM 42.8 °F 41.1 °F 42.8 °F 100% 30.23 in 10.0 mi SSE 3.5 mph - N/A   Overcast
10:29 AM 44.6 °F 42.2 °F 44.6 °F 100% 30.23 in 10.0 mi SE 4.6 mph - N/A   Overcast
10:39 AM 44.6 °F 42.2 °F 44.6 °F 100% 30.23 in 10.0 mi SSE 4.6 mph - N/A   Overcast
10:55 AM 47.1 °F - 46.8 °F 99% 30.22 in 10.0 mi Variable 4.6 mph - N/A   Overcast
11:05 AM 48.2 °F - 48.2 °F 100% 30.22 in 10.0 mi South 10.4 mph - N/A   Overcast
11:20 AM 50.0 °F - 44.6 °F 82% 30.22 in 10.0 mi SSE 9.2 mph - N/A   Overcast
11:55 AM 53.1 °F - 43.3 °F 70% 30.20 in 10.0 mi South 10.4 mph 16.1 mph N/A   Scattered Clouds
12:55 PM 56.8 °F - 42.3 °F 58% 30.18 in 10.0 mi South 10.4 mph - N/A   Partly Cloudy
1:55 PM 59.2 °F - 42.4 °F 54% 30.16 in 10.0 mi South 6.9 mph - N/A   Partly Cloudy
2:55 PM 59.9 °F - 41.2 °F 50% 30.12 in 10.0 mi South 8.1 mph 19.6 mph N/A   Scattered Clouds
3:55 PM 57.2 °F - 43.5 °F 60% 30.12 in 10.0 mi SE 9.2 mph - N/A   Mostly Cloudy
4:55 PM 56.1 °F - 45.5 °F 68% 30.10 in 10.0 mi SSE 10.4 mph - N/A   Clear
5:55 PM 54.1 °F - 45.9 °F 74% 30.09 in 10.0 mi SSE 8.1 mph 17.3 mph N/A   Clear
6:55 PM 51.8 °F - 46.2 °F 81% 30.10 in 10.0 mi SSE 6.9 mph - N/A   Clear
7:15 PM 51.8 °F - 46.4 °F 82% 30.09 in 10.0 mi SE 9.2 mph - N/A   Mostly Cloudy
7:37 PM 50.0 °F - 48.2 °F 94% 30.09 in 10.0 mi SSE 8.1 mph - N/A   Overcast
7:42 PM 51.8 °F - 48.2 °F 88% 30.10 in 10.0 mi SSE 8.1 mph - N/A   Overcast
7:55 PM 50.5 °F - 48.2 °F 92% 30.10 in 10.0 mi South 8.1 mph - N/A   Mostly Cloudy
8:55 PM 49.8 °F - 47.8 °F 93% 30.09 in 10.0 mi South 9.2 mph - N/A   Overcast
9:06 PM 50.0 °F - 48.2 °F 94% 30.08 in 10.0 mi SSE 12.7 mph - N/A   Mostly Cloudy
9:55 PM 49.6 °F - 47.7 °F 93% 30.08 in 10.0 mi SSE 8.1 mph - N/A   Clear
10:55 PM 50.2 °F - 48.2 °F 93% 30.07 in 10.0 mi South 10.4 mph 17.3 mph N/A   Overcast
11:55 PM 50.4 °F - 47.7 °F 90% 30.06 in 10.0 mi South 9.2 mph - N/A   Overcast